| time (UTC) | temp F | wind direction | speed knots | gust knots | rain 1hr in | rain 24hr in | rain mn in | humidity % | barometer mb |
| 20260507035011 | 53 | 220 | 0.9 | 1.7 | 0.00 | 0.06 | 0.00 | 88 | 1014.2 |
| 20260507034003 | 54 | 223 | 0.0 | 1.7 | 0.00 | 0.06 | 0.00 | 88 | 1014.4 |
| 20260507033003 | 54 | 238 | 1.7 | 2.6 | 0.00 | 0.06 | 0.00 | 87 | 1014.1 |
| 20260507032003 | 54 | 263 | 2.6 | 7.8 | 0.00 | 0.06 | 0.00 | 87 | 1014.1 |
| 20260507031003 | 55 | 229 | 4.3 | 7.8 | 0.00 | 0.06 | 0.00 | 86 | 1013.8 |
| 20260507030003 | 55 | 232 | 3.5 | 7.0 | 0.00 | 0.06 | 0.00 | 86 | 1013.7 |
| 20260507025003 | 55 | 208 | 3.5 | 7.0 | 0.00 | 0.06 | 0.00 | 85 | 1013.3 |
| 20260507024003 | 55 | 194 | 1.7 | 6.1 | 0.00 | 0.06 | 0.00 | 85 | 1013.5 |
| 20260507023003 | 55 | 186 | 0.9 | 5.2 | 0.00 | 0.06 | 0.00 | 85 | 1013.5 |
| 20260507022003 | 55 | 195 | 1.7 | 3.5 | 0.00 | 0.06 | 0.00 | 85 | 1013.4 |
| 20260507021003 | 53 | 196 | 0.9 | 3.5 | 0.00 | 0.06 | 0.00 | 87 | 1013.7 |
| 20260507020003 | 53 | 147 | 0.9 | 2.6 | 0.00 | 0.06 | 0.00 | 86 | 1013.6 |
| 20260507015003 | 54 | 150 | 0.9 | 1.7 | 0.00 | 0.06 | 0.00 | 85 | 1013.2 |
| 20260507014003 | 54 | 179 | 0.9 | 2.6 | 0.00 | 0.06 | 0.00 | 86 | 1013.5 |
| 20260507013003 | 53 | 188 | 1.7 | 5.2 | 0.00 | 0.06 | 0.00 | 88 | 1013.5 |
| 20260507012003 | 53 | 198 | 1.7 | 3.5 | 0.00 | 0.06 | 0.00 | 88 | 1013.5 |
| 20260507011003 | 53 | 205 | 1.7 | 5.2 | 0.00 | 0.06 | 0.00 | 88 | 1013.1 |
| 20260507010003 | 53 | 199 | 1.7 | 5.2 | 0.00 | 0.06 | 0.00 | 87 | 1013.0 |
| 20260507005003 | 53 | 192 | 1.7 | 2.6 | 0.00 | 0.06 | 0.00 | 88 | 1013.0 |
| 20260507004003 | 54 | 203 | 1.7 | 5.2 | 0.00 | 0.06 | 0.00 | 88 | 1012.8 |
| 20260507003003 | 54 | 217 | 1.7 | 5.2 | 0.00 | 0.06 | 0.00 | 88 | 1012.9 |
| 20260507002003 | 54 | 221 | 1.7 | 5.2 | 0.00 | 0.06 | 0.00 | 89 | 1012.9 |
| 20260507001003 | 54 | 226 | 1.7 | 2.6 | 0.00 | 0.06 | 0.00 | 89 | 1012.6 |
| 20260507000003 | 54 | 228 | 1.7 | 3.5 | 0.00 | 0.06 | 0.00 | 89 | 1012.7 |
| 20260506235003 | 54 | 170 | 1.7 | 2.6 | 0.00 | 0.06 | 0.00 | 89 | 1012.6 |
| 20260506234003 | 54 | 236 | 1.7 | 2.6 | 0.00 | 0.06 | 0.00 | 89 | 1012.4 |
| 20260506233003 | 54 | 259 | 0.9 | 2.6 | 0.00 | 0.06 | 0.00 | 89 | 1012.4 |
| 20260506232003 | 54 | 285 | 1.7 | 3.5 | 0.00 | 0.06 | 0.00 | 89 | 1012.2 |
| 20260506231003 | 55 | 289 | 4.3 | 7.8 | 0.00 | 0.06 | 0.00 | 88 | 1012.1 |
| 20260506230003 | 55 | 291 | 3.5 | 8.7 | 0.00 | 0.06 | 0.00 | 87 | 1012.0 |
| 20260506225003 | 55 | 52 | 3.5 | 7.8 | 0.00 | 0.06 | 0.00 | 87 | 1011.2 |
| 20260506224003 | 55 | 33 | 2.6 | 6.1 | 0.00 | 0.06 | 0.00 | 87 | 1010.9 |
| 20260506223003 | 55 | 319 | 2.6 | 7.0 | 0.00 | 0.06 | 0.00 | 86 | 1011.4 |
| 20260506222003 | 56 | 335 | 3.5 | 7.0 | 0.00 | 0.06 | 0.00 | 83 | 1011.9 |
| 20260506221003 | 56 | 334 | 4.3 | 9.6 | 0.00 | 0.06 | 0.00 | 81 | 1012.0 |
| 20260506220011 | 57 | 305 | 6.1 | 14.8 | 0.00 | 0.06 | 0.00 | 81 | 1012.0 |
| 20260506215004 | 57 | 304 | 7.0 | 12.2 | 0.00 | 0.06 | 0.06 | 81 | 1012.1 |
| 20260506214003 | 57 | 300 | 5.2 | 9.6 | 0.00 | 0.06 | 0.06 | 82 | 1012.1 |
| 20260506213003 | 57 | 292 | 7.0 | 13.9 | 0.00 | 0.06 | 0.06 | 84 | 1012.2 |
| 20260506212003 | 56 | 287 | 6.1 | 13.9 | 0.00 | 0.06 | 0.06 | 88 | 1012.6 |
| 20260506211003 | 55 | 311 | 3.5 | 7.8 | 0.00 | 0.06 | 0.06 | 87 | 1011.5 |
| 20260506210004 | 55 | 319 | 2.6 | 6.1 | 0.00 | 0.06 | 0.06 | 87 | 1010.9 |
| 20260506205003 | 56 | 318 | 1.7 | 2.6 | 0.00 | 0.06 | 0.06 | 85 | 1010.7 |
| 20260506204003 | 56 | 331 | 1.7 | 3.5 | 0.00 | 0.06 | 0.06 | 83 | 1010.4 |
| 20260506203003 | 56 | 69 | 0.0 | 1.7 | 0.00 | 0.06 | 0.06 | 83 | 1010.5 |
| 20260506202003 | 56 | 86 | 0.0 | 2.6 | 0.00 | 0.06 | 0.06 | 82 | 1010.0 |
| 20260506201003 | 56 | 78 | 0.0 | 1.7 | 0.00 | 0.06 | 0.06 | 82 | 1010.0 |
| 20260506200003 | 57 | 79 | 1.7 | 3.5 | 0.00 | 0.06 | 0.06 | 82 | 1010.0 |
| 20260506195003 | 56 | 82 | 0.9 | 1.7 | 0.00 | 0.06 | 0.06 | 84 | 1010.1 |
| 20260506194003 | 57 | 136 | 0.0 | 1.7 | 0.00 | 0.06 | 0.06 | 83 | 1010.0 |
| 20260506193003 | 57 | 114 | 0.9 | 1.7 | 0.00 | 0.06 | 0.06 | 83 | 1010.0 |
| 20260506192003 | 57 | 90 | 0.0 | 0.9 | 0.00 | 0.06 | 0.06 | 83 | 1009.9 |
| 20260506191003 | 57 | 83 | 0.0 | 1.7 | 0.00 | 0.06 | 0.06 | 83 | 1009.8 |
| 20260506190003 | 57 | 81 | 0.9 | 2.6 | 0.00 | 0.06 | 0.06 | 83 | 1010.0 |
| 20260506185003 | 57 | 0 | 0.0 | 0.0 | 0.00 | 0.06 | 0.06 | 86 | 1009.8 |
| 20260506184003 | 58 | 0 | 0.0 | 0.0 | 0.00 | 0.06 | 0.06 | 85 | 1010.0 |
| 20260506183003 | 58 | 56 | 0.9 | 1.7 | 0.00 | 0.06 | 0.06 | 85 | 1009.8 |
| 20260506182003 | 58 | 25 | 1.7 | 3.5 | 0.00 | 0.06 | 0.06 | 84 | 1009.6 |
| 20260506181003 | 58 | 64 | 0.9 | 1.7 | 0.00 | 0.06 | 0.06 | 85 | 1009.9 |
| 20260506180004 | 59 | 61 | 2.6 | 3.5 | 0.01 | 0.06 | 0.06 | 83 | 1010.2 |
| 20260506175003 | 59 | 34 | 2.6 | 3.5 | 0.01 | 0.06 | 0.06 | 83 | 1009.7 |
| 20260506174003 | 60 | 346 | 3.5 | 6.1 | 0.01 | 0.06 | 0.06 | 82 | 1009.6 |
| 20260506173003 | 60 | 308 | 3.5 | 6.1 | 0.01 | 0.06 | 0.06 | 82 | 1009.5 |
| 20260506172003 | 61 | 291 | 3.5 | 6.1 | 0.01 | 0.06 | 0.06 | 81 | 1009.4 |
| 20260506171003 | 62 | 337 | 2.6 | 7.0 | 0.01 | 0.06 | 0.06 | 82 | 1009.3 |
| 20260506170003 | 62 | 317 | 4.3 | 9.6 | 0.00 | 0.05 | 0.05 | 80 | 1009.2 |
| 20260506165003 | 63 | 329 | 2.6 | 5.2 | 0.00 | 0.05 | 0.05 | 78 | 1008.9 |
| 20260506164004 | 64 | 347 | 1.7 | 2.6 | 0.00 | 0.05 | 0.05 | 76 | 1008.7 |
| 20260506163003 | 64 | 360 | 1.7 | 3.5 | 0.00 | 0.05 | 0.05 | 72 | 1008.7 |
| 20260506162003 | 65 | 18 | 2.6 | 3.5 | 0.00 | 0.05 | 0.05 | 71 | 1008.1 |
| 20260506161003 | 65 | 37 | 1.7 | 5.2 | 0.00 | 0.05 | 0.05 | 69 | 1008.3 |
| 20260506160003 | 64 | 52 | 2.6 | 6.1 | 0.00 | 0.05 | 0.05 | 72 | 1008.5 |
| 20260506155003 | 64 | 45 | 1.7 | 5.2 | 0.00 | 0.05 | 0.05 | 78 | 1008.9 |
| 20260506154003 | 64 | 95 | 2.6 | 5.2 | 0.00 | 0.05 | 0.05 | 73 | 1008.8 |
| 20260506153003 | 64 | 141 | 1.7 | 5.2 | 0.00 | 0.05 | 0.05 | 74 | 1009.6 |
| 20260506152003 | 65 | 72 | 1.7 | 3.5 | 0.00 | 0.05 | 0.05 | 73 | 1009.1 |
| 20260506151003 | 65 | 54 | 1.7 | 3.5 | 0.02 | 0.05 | 0.05 | 71 | 1009.0 |
| 20260506150003 | 67 | 341 | 0.9 | 1.7 | 0.05 | 0.05 | 0.05 | 68 | 1009.3 |
| 20260506145003 | 65 | 335 | 1.7 | 3.5 | 0.05 | 0.05 | 0.05 | 71 | 1009.3 |
| 20260506144003 | 64 | 304 | 2.6 | 2.6 | 0.05 | 0.05 | 0.05 | 74 | 1009.4 |
| 20260506143003 | 61 | 296 | 2.6 | 3.5 | 0.05 | 0.05 | 0.05 | 79 | 1009.9 |
| 20260506142003 | 63 | 331 | 0.9 | 3.5 | 0.05 | 0.05 | 0.05 | 76 | 1010.0 |
| 20260506141003 | 64 | 62 | 0.9 | 3.5 | 0.03 | 0.03 | 0.03 | 75 | 1010.0 |
| 20260506140003 | 69 | 52 | 1.7 | 3.5 | 0.00 | 0.00 | 0.00 | 55 | 1009.6 |
| 20260506135003 | 70 | 29 | 1.7 | 5.2 | 0.00 | 0.00 | 0.00 | 54 | 1009.4 |
| 20260506134003 | 70 | 6 | 1.7 | 3.5 | 0.00 | 0.00 | 0.00 | 52 | 1009.3 |
| 20260506133003 | 70 | 43 | 1.7 | 5.2 | 0.00 | 0.00 | 0.00 | 52 | 1009.3 |
| 20260506132003 | 71 | 356 | 0.9 | 3.5 | 0.00 | 0.00 | 0.00 | 52 | 1009.5 |
| 20260506131003 | 71 | 347 | 1.7 | 3.5 | 0.00 | 0.00 | 0.00 | 49 | 1009.7 |
| 20260506130003 | 69 | 331 | 0.9 | 3.5 | 0.00 | 0.00 | 0.00 | 54 | 1010.1 |
| 20260506125003 | 69 | 324 | 1.7 | 3.5 | 0.00 | 0.00 | 0.00 | 57 | 1010.1 |
| 20260506124003 | 71 | 352 | 1.7 | 3.5 | 0.00 | 0.00 | 0.00 | 53 | 1009.9 |
| 20260506123003 | 71 | 5 | 1.7 | 3.5 | 0.00 | 0.00 | 0.00 | 49 | 1010.0 |
| 20260506122003 | 71 | 330 | 0.9 | 3.5 | 0.00 | 0.00 | 0.00 | 47 | 1010.2 |
| 20260506121003 | 71 | 300 | 1.7 | 3.5 | 0.00 | 0.00 | 0.00 | 49 | 1010.4 |
| 20260506120003 | 71 | 271 | 1.7 | 2.6 | 0.00 | 0.00 | 0.00 | 47 | 1010.3 |
| 20260506115003 | 72 | 347 | 0.9 | 3.5 | 0.00 | 0.00 | 0.00 | 50 | 1010.0 |
| 20260506114003 | 69 | 314 | 1.7 | 5.2 | 0.00 | 0.00 | 0.00 | 51 | 1010.4 |
| 20260506113003 | 71 | 327 | 1.7 | 5.2 | 0.00 | 0.00 | 0.00 | 50 | 1010.4 |
| 20260506112003 | 69 | 350 | 1.7 | 5.2 | 0.00 | 0.00 | 0.00 | 52 | 1010.5 |
| 20260506111003 | 69 | 15 | 1.7 | 3.5 | 0.00 | 0.00 | 0.00 | 53 | 1010.9 |
| 20260506110003 | 67 | 241 | 2.6 | 3.5 | 0.00 | 0.00 | 0.00 | 54 | 1011.0 |
| 20260506105003 | 70 | 277 | 1.7 | 6.1 | 0.00 | 0.00 | 0.00 | 51 | 1011.1 |
| 20260506104003 | 70 | 248 | 1.7 | 6.1 | 0.00 | 0.00 | 0.00 | 51 | 1011.1 |
| 20260506103003 | 67 | 270 | 3.5 | 7.0 | 0.00 | 0.00 | 0.00 | 55 | 1011.6 |
| 20260506102003 | 67 | 264 | 1.7 | 6.1 | 0.00 | 0.00 | 0.00 | 52 | 1011.5 |
| 20260506101003 | 68 | 245 | 1.7 | 7.0 | 0.00 | 0.00 | 0.00 | 53 | 1011.7 |
| 20260506100003 | 67 | 211 | 2.6 | 6.1 | 0.00 | 0.00 | 0.00 | 53 | 1011.7 |
| 20260506095003 | 67 | 228 | 2.6 | 6.1 | 0.00 | 0.00 | 0.00 | 56 | 1011.7 |
| 20260506094003 | 66 | 263 | 1.7 | 6.1 | 0.00 | 0.00 | 0.00 | 59 | 1011.9 |
| 20260506093003 | 65 | 276 | 3.5 | 7.0 | 0.00 | 0.00 | 0.00 | 59 | 1012.0 |
| 20260506092003 | 65 | 276 | 3.5 | 7.8 | 0.00 | 0.00 | 0.00 | 61 | 1011.9 |
| 20260506091003 | 65 | 247 | 2.6 | 5.2 | 0.00 | 0.00 | 0.00 | 62 | 1012.1 |
| 20260506090003 | 63 | 292 | 4.3 | 7.0 | 0.00 | 0.00 | 0.00 | 63 | 1012.2 |
| 20260506085003 | 64 | 273 | 3.5 | 7.8 | 0.00 | 0.00 | 0.00 | 63 | 1012.0 |
| 20260506084006 | 63 | 248 | 3.5 | 7.0 | 0.00 | 0.00 | 0.00 | 62 | 1012.1 |
| 20260506083003 | 63 | 244 | 4.3 | 7.8 | 0.00 | 0.00 | 0.00 | 61 | 1012.4 |
| 20260506082003 | 63 | 247 | 4.3 | 7.8 | 0.00 | 0.00 | 0.00 | 63 | 1011.9 |
| 20260506081003 | 62 | 251 | 5.2 | 8.7 | 0.00 | 0.00 | 0.00 | 63 | 1012.2 |
| 20260506073003 | 62 | 261 | 5.2 | 11.3 | 0.00 | 0.00 | 0.00 | 66 | 1012.5 |
| 20260506072003 | 62 | 274 | 4.3 | 9.6 | 0.00 | 0.00 | 0.00 | 67 | 1012.6 |
| 20260506071003 | 62 | 277 | 6.1 | 11.3 | 0.00 | 0.00 | 0.00 | 68 | 1012.4 |
| 20260506062003 | 61 | 277 | 3.5 | 7.8 | 0.00 | 0.00 | 0.00 | 69 | 1012.2 |
| 20260506061003 | 60 | 258 | 1.7 | 5.2 | 0.00 | 0.00 | 0.00 | 72 | 1012.2 |
| 20260506051003 | 58 | 206 | 1.7 | 3.5 | 0.00 | 0.00 | 0.00 | 80 | 1012.4 |
| 20260506045003 | 57 | 154 | 0.0 | 1.7 | 0.00 | 0.00 | 0.00 | 82 | 1012.4 |
| 20260506044003 | 57 | 133 | 0.0 | 0.9 | 0.00 | 0.00 | 0.00 | 83 | 1012.3 |
| 20260506043003 | 55 | 133 | 0.0 | 0.9 | 0.00 | 0.00 | 0.00 | 88 | 1012.2 |
| 20260506042003 | 54 | 133 | 0.0 | 0.9 | 0.00 | 0.00 | 0.00 | 91 | 1012.6 |
| 20260506040003 | 54 | 0 | 0.0 | 0.0 | 0.00 | 0.00 | 0.00 | 93 | 1012.2 |